Content
SEND FEEDBACK

Daily
Averages
Monthly
Summary
Switzerland

BERN, SWITZERLAND


Home > Europe > Switzerland
Elevation: 1673 feet     Latitude: 46 55N     Longitude: 007 30E

WEATHER
 
SELECT A DAY
Number of Records: 187,247;   Date Range: 7/1/96 - 12/17/14
 
SHARE

PRINT THIS DATA

[ ← Previous Day ]
WEATHER ALMANAC - DECEMBER 31, 2013
[ Next Day → ]
[ °C ]   °F
Weather ElementAverageHighLow
Temperature30.5 °F41 °F (1:50 pm)24.8 °F (8:50 am)
Dewpoint26.9 °F32 °F (3:50 pm)24.8 °F (7:50 am)
Humidity87.5 %100 % (8:50 am)61 % (1:20 pm)
Barometer30.10 in30.24 in (12:50 am)30.01 in (4:20 pm)
Wind Speed2.8 mph6.9 mph (12:50 am)
Weather ElementAverage
Visibility6.2 mi
Wind DirectionE (87.7 °)

Weather ElementTotal
Precipitation---
Heating Degree Days32.1 (Base 65)
Averaged from 47 records on December 31, 2013
WEATHER CONDITIONS BREAKOUT
WIND DIRECTION BREAKOUT
WEATHER BY HOUR - DECEMBER 31, 2013
[ °C ]   °F
Local TimeTemperatureDewpointHumidityBarometerVisibilityWind DirectionWind SpeedGust SpeedPrecipitationEventsConditions
12:50 AM28.4 °F26.6 °F93 %30.24 in6.2 miESE (120°)6.9 mphPartly Cloudy
1:20 AM28.4 °F26.6 °F93 %30.21 in6.2 miEast (100°)5.8 mph
1:50 AM28.4 °F26.6 °F93 %30.21 inVariable2.3 mphClear
2:20 AM28.4 °F26.6 °F93 %30.21 in6.2 miESE (110°)4.6 mphPartly Cloudy
2:50 AM28.4 °F26.6 °F93 %30.21 in6.2 miESE (110°)4.6 mphMostly Cloudy
3:20 AM28.4 °F26.6 °F93 %30.21 in6.2 miSE (140°)3.5 mphOvercast
3:50 AM28.4 °F26.6 °F93 %30.21 in6.2 miSSE (160°)2.3 mphMostly Cloudy
4:20 AM28.4 °F26.6 °F93 %30.21 in6.2 miSouth (180°)3.5 mphMostly Cloudy
4:50 AM28.4 °F26.6 °F93 %30.18 in6.2 miVariable2.3 mphMostly Cloudy
5:20 AM28.4 °F26.6 °F93 %30.18 in6.2 miSouth (170°)1.2 mphOvercast
5:50 AM28.4 °F26.6 °F93 %30.18 in6.2 miVariable2.3 mphMostly Cloudy
6:20 AM28.4 °F26.6 °F93 %30.15 in6.2 miESE (110°)3.5 mphMostly Cloudy
6:50 AM28.4 °F26.6 °F93 %30.15 in6.2 miSSE (150°)3.5 mphMostly Cloudy
7:20 AM28.4 °F26.6 °F93 %30.15 in6.2 miCalmMostly Cloudy
7:50 AM26.6 °F24.8 °F93 %30.12 in6.2 miCalmPartly Cloudy
8:20 AM26.6 °F24.8 °F93 %30.12 in6.2 miCalmPartly Cloudy
8:50 AM24.8 °F24.8 °F100 %30.12 inCalmClear
9:20 AM26.6 °F26.6 °F100 %30.15 inCalmClear
9:50 AM28.4 °F28.4 °F100 %30.15 inSouth (170°)2.3 mphClear
10:20 AM30.2 °F28.4 °F93 %30.15 inSouth (180°)2.3 mphClear
10:50 AM30.2 °F28.4 °F93 %30.15 inSSE (150°)3.5 mphClear
11:20 AM33.8 °F28.4 °F81 %30.12 inSE (140°)4.6 mphClear
11:50 AM37.4 °F28.4 °F70 %30.12 inVariable2.3 mphClear
12:20 PM37.4 °F28.4 °F70 %30.09 inSSE (150°)3.5 mphClear
12:50 PM39.2 °F28.4 °F65 %30.06 inVariable2.3 mphClear
1:20 PM39.2 °F26.6 °F61 %30.06 inSouth (180°)3.5 mphClear
1:50 PM41.0 °F30.2 °F65 %30.06 inVariable3.5 mphClear
2:20 PM41.0 °F28.4 °F61 %30.04 inSW (230°)3.5 mphClear
2:50 PM41.0 °F28.4 °F61 %30.04 inWSW (240°)3.5 mphClear
3:20 PM41.0 °F30.2 °F65 %30.04 inSW (230°)2.3 mphClear
3:50 PM39.2 °F32.0 °F75 %30.04 inSW (220°)3.5 mphClear
4:20 PM35.6 °F28.4 °F75 %30.01 inSSE (150°)3.5 mphClear
4:50 PM33.8 °F28.4 °F81 %30.01 inESE (110°)3.5 mphClear
5:20 PM30.2 °F26.6 °F86 %30.01 inSE (130°)4.6 mphClear
5:50 PM32.0 °F26.6 °F80 %30.01 inEast (100°)4.6 mphClear
6:20 PM28.4 °F26.6 °F93 %30.01 inVariable3.5 mphClear
6:50 PM30.2 °F26.6 °F86 %30.01 inVariable2.3 mphClear
7:20 PM28.4 °F26.6 °F93 %30.01 inSSE (150°)4.6 mphClear
7:50 PM28.4 °F26.6 °F93 %30.01 in6.2 miVariable1.2 mph
8:20 PM28.4 °F24.8 °F86 %30.01 inVariable2.3 mphClear
8:50 PM26.6 °F26.6 °F100 %30.01 inSSE (150°)1.2 mphClear
9:20 PM26.6 °F26.6 °F100 %30.01 inVariable2.3 mphClear
9:50 PM24.8 °F24.8 °F100 %30.01 in6.2 miEast (90°)2.3 mph
10:20 PM24.8 °F24.8 °F100 %30.01 inVariable1.2 mphClear
10:50 PM24.8 °F24.8 °F100 %30.01 in6.2 miVariable2.3 mph
11:20 PM24.8 °F24.8 °F100 %30.01 in6.2 miVariable2.3 mphScattered Clouds
11:50 PM26.6 °F24.8 °F93 %30.04 in6.2 miVariable1.2 mphScattered Clouds
Hourly data recorded from LSZB, located miles away from Bern, Switzerland







STORIES FROM OUR PARTNERS